Time,TemperatureF,DewpointF,PressureIn,WindDirection,WindDirectionDegrees,WindSpeedMPH,WindSpeedGustMPH,Humidity,HourlyPrecipIn,Conditions,Clouds,dailyrainin,SolarRadiationWatts/m^2,SoftwareType,DateUTC
2013-03-26 00:00:00,72.6,68.5,29.96,SE,138,1.0,6.0,87,0.00,CLR,,0.00,0.0,WeatherDisplay:10.37,2013-03-25 14:00:00,
2013-03-26 00:05:00,72.3,68.2,29.96,SE,135,3.5,3.5,87,0.00,CLR,,0.00,0.0,WeatherDisplay:10.37,2013-03-25 14:05:00,
2013-03-26 00:10:00,72.4,68.3,29.96,ESE,123,2.0,4.0,87,0.00,CLR,,0.00,0.0,WeatherDisplay:10.37,2013-03-25 14:10:00,
2013-03-26 00:15:00,72.1,68.4,29.96,SE,135,3.5,3.5,88,0.00,CLR,,0.00,0.0,WeatherDisplay:10.37,2013-03-25 14:15:00,
2013-03-26 00:20:00,72.0,68.5,29.96,SE,135,3.5,3.5,89,0.00,CLR,,0.00,0.0,WeatherDisplay:10.37,2013-03-25 14:20:00,
2013-03-26 00:25:00,71.4,68.7,29.95,South,180,3.5,3.5,91,0.00,CLR,,0.00,0.0,WeatherDisplay:10.37,2013-03-25 14:25:00,
2013-03-26 00:30:00,71.1,68.6,29.95,South,172,0.0,2.0,92,0.00,CLR,,0.00,0.0,WeatherDisplay:10.37,2013-03-25 14:30:00,
2013-03-26 00:35:00,70.5,68.1,29.95,West,270,0.0,0.0,92,0.00,CLR,,0.00,0.0,WeatherDisplay:10.37,2013-03-25 14:35:00,
2013-03-26 00:40:00,70.2,67.7,29.95,SSW,202,0.0,0.0,92,0.00,CLR,,0.00,0.0,WeatherDisplay:10.37,2013-03-25 14:40:00,
2013-03-26 00:45:00,70.2,68.0,29.95,SSE,152,1.0,3.0,93,0.00,CLR,,0.00,0.0,WeatherDisplay:10.37,2013-03-25 14:45:00,
2013-03-26 00:50:00,70.3,68.2,29.95,NE,45,2.3,0.0,93,0.00,CLR,,0.00,0.0,WeatherDisplay:10.37,2013-03-25 14:50:00,
2013-03-26 00:55:00,70.7,68.6,29.95,East,90,6.9,6.9,93,0.00,CLR,,0.00,0.0,WeatherDisplay:10.37,2013-03-25 14:55:00,
2013-03-26 01:00:00,71.6,68.8,29.94,NE,45,3.5,0.0,91,0.00,CLR,,0.00,0.0,WeatherDisplay:10.37,2013-03-25 15:00:00,
2013-03-26 01:05:00,71.4,68.7,29.95,NW,315,0.0,0.0,91,0.00,CLR,,0.00,0.0,WeatherDisplay:10.37,2013-03-25 15:05:00,
2013-03-26 01:10:00,70.7,68.0,29.94,NW,318,1.0,2.0,91,0.00,CLR,,0.00,0.0,WeatherDisplay:10.37,2013-03-25 15:10:00,
2013-03-26 01:15:00,69.8,67.4,29.94,West,270,4.6,4.6,92,0.00,CLR,,0.00,0.0,WeatherDisplay:10.37,2013-03-25 15:15:00,
2013-03-26 01:20:00,69.8,67.7,29.94,West,273,0.0,3.0,93,0.00,CLR,,0.00,0.0,WeatherDisplay:10.37,2013-03-25 15:20:00,
2013-03-26 01:25:00,69.6,68.1,29.93,West,270,1.1,0.0,95,0.00,CLR,,0.00,0.0,WeatherDisplay:10.37,2013-03-25 15:25:00,
2013-03-26 01:30:00,69.5,68.0,29.94,West,277,0.0,0.0,95,0.00,CLR,,0.00,0.0,WeatherDisplay:10.37,2013-03-25 15:30:00,
2013-03-26 01:35:00,69.3,67.8,29.93,West,270,0.0,0.0,95,0.00,CLR,,0.00,0.0,WeatherDisplay:10.37,2013-03-25 15:35:00,
2013-03-26 01:40:00,69.1,67.6,29.93,WSW,247,0.0,1.0,95,0.00,CLR,,0.00,0.0,WeatherDisplay:10.37,2013-03-25 15:40:00,
2013-03-26 01:45:00,69.1,67.9,29.93,South,180,1.6,0.0,96,0.00,CLR,,0.00,0.0,WeatherDisplay:10.37,2013-03-25 15:45:00,
2013-03-26 01:50:00,69.1,67.9,29.93,SSW,207,0.0,2.0,96,0.00,CLR,,0.00,0.0,WeatherDisplay:10.37,2013-03-25 15:50:00,
2013-03-26 01:55:00,69.3,68.4,29.93,SSW,192,0.0,2.0,97,0.00,CLR,,0.00,0.0,WeatherDisplay:10.37,2013-03-25 15:55:00,
2013-03-26 02:00:00,69.4,68.6,29.93,SSW,198,2.0,3.0,97,0.00,CLR,,0.00,0.0,WeatherDisplay:10.37,2013-03-25 16:00:00,
2013-03-26 02:05:00,69.6,68.7,29.93,SSW,201,0.0,4.0,97,0.00,CLR,,0.00,0.0,WeatherDisplay:10.37,2013-03-25 16:05:00,
2013-03-26 02:10:00,69.6,68.7,29.93,West,270,0.0,0.0,97,0.00,CLR,,0.00,0.0,WeatherDisplay:10.37,2013-03-25 16:10:00,
2013-03-26 02:15:00,69.6,68.7,29.93,West,277,0.0,0.0,97,0.00,CLR,,0.00,0.0,WeatherDisplay:10.37,2013-03-25 16:15:00,
2013-03-26 02:20:00,69.8,68.6,29.93,NNW,330,0.0,0.0,96,0.00,CLR,,0.00,0.0,WeatherDisplay:10.37,2013-03-25 16:20:00,
2013-03-26 02:25:00,69.8,68.3,29.93,NNW,347,0.0,0.0,95,0.00,CLR,,0.00,0.0,WeatherDisplay:10.37,2013-03-25 16:25:00,
2013-03-26 02:30:00,69.6,68.4,29.92,NW,321,0.0,0.0,96,0.00,CLR,,0.00,0.0,WeatherDisplay:10.37,2013-03-25 16:30:00,
2013-03-26 02:35:00,69.5,68.3,29.91,WNW,298,0.0,0.0,96,0.00,CLR,,0.00,0.0,WeatherDisplay:10.37,2013-03-25 16:35:00,
2013-03-26 02:40:00,69.4,68.2,29.92,SE,135,0.0,0.0,96,0.00,CLR,,0.00,0.0,WeatherDisplay:10.37,2013-03-25 16:40:00,
2013-03-26 02:45:00,69.3,68.1,29.91,SSE,153,0.0,0.0,96,0.00,CLR,,0.00,0.0,WeatherDisplay:10.37,2013-03-25 16:45:00,
2013-03-26 02:50:00,69.1,68.2,29.91,SW,225,0.0,0.0,97,0.00,CLR,,0.00,0.0,WeatherDisplay:10.37,2013-03-25 16:50:00,
2013-03-26 02:55:00,69.1,68.2,29.91,South,180,0.0,0.0,97,0.00,CLR,,0.00,0.0,WeatherDisplay:10.37,2013-03-25 16:55:00,
2013-03-26 03:00:00,68.9,68.0,29.90,NE,45,0.0,0.0,97,0.00,CLR,,0.00,0.0,WeatherDisplay:10.37,2013-03-25 17:00:00,
2013-03-26 03:05:00,68.7,67.8,29.91,NW,315,0.0,0.0,97,0.00,CLR,,0.00,0.0,WeatherDisplay:10.37,2013-03-25 17:05:00,
2013-03-26 03:10:00,68.5,68.0,29.90,NW,315,0.0,0.0,98,0.00,CLR,,0.00,0.0,WeatherDisplay:10.37,2013-03-25 17:10:00,
2013-03-26 03:15:00,68.5,68.0,29.90,WSW,252,0.0,0.0,98,0.00,CLR,,0.00,0.0,WeatherDisplay:10.37,2013-03-25 17:15:00,
2013-03-26 03:20:00,68.7,68.1,29.90,South,180,1.1,0.0,98,0.00,CLR,,0.00,0.0,WeatherDisplay:10.37,2013-03-25 17:20:00,
2013-03-26 03:25:00,68.7,68.1,29.90,WSW,239,0.0,0.0,98,0.00,CLR,,0.00,0.0,WeatherDisplay:10.37,2013-03-25 17:25:00,
2013-03-26 03:30:00,68.7,68.4,29.90,WNW,299,0.0,0.0,99,0.00,CLR,,0.00,0.0,WeatherDisplay:10.37,2013-03-25 17:30:00,
2013-03-26 03:35:00,68.7,68.4,29.90,NE,45,0.0,0.0,99,0.00,CLR,,0.00,0.0,WeatherDisplay:10.37,2013-03-25 17:35:00,
2013-03-26 03:40:00,68.9,68.6,29.90,ENE,73,0.0,2.0,99,0.00,CLR,,0.00,0.0,WeatherDisplay:10.37,2013-03-25 17:40:00,
2013-03-26 03:45:00,69.9,69.3,29.90,ESE,103,6.0,7.0,98,0.00,CLR,,0.00,0.0,WeatherDisplay:10.37,2013-03-25 17:45:00,
2013-03-26 03:50:00,71.4,70.2,29.89,ESE,118,5.0,7.0,96,0.00,CLR,,0.00,0.0,WeatherDisplay:10.37,2013-03-25 17:50:00,
2013-03-26 03:55:00,71.8,69.6,29.89,ESE,120,5.0,6.0,93,0.00,CLR,,0.00,0.0,WeatherDisplay:10.37,2013-03-25 17:55:00,
2013-03-26 04:00:00,72.3,69.5,29.89,SE,127,3.0,8.0,91,0.00,CLR,,0.00,0.0,WeatherDisplay:10.37,2013-03-25 18:00:00,
2013-03-26 04:05:00,72.7,69.2,29.89,SE,135,6.9,6.9,89,0.00,CLR,,0.00,0.0,WeatherDisplay:10.37,2013-03-25 18:05:00,
2013-03-26 04:10:00,72.9,68.8,29.89,SE,135,5.8,5.8,87,0.00,CLR,,0.00,0.0,WeatherDisplay:10.37,2013-03-25 18:10:00,
2013-03-26 04:15:00,72.3,68.2,29.89,South,180,4.6,4.6,87,0.00,CLR,,0.00,0.0,WeatherDisplay:10.37,2013-03-25 18:15:00,
2013-03-26 04:20:00,72.1,68.4,29.88,SE,135,5.8,5.8,88,0.00,CLR,,0.00,0.0,WeatherDisplay:10.37,2013-03-25 18:20:00,
2013-03-26 04:25:00,72.1,68.4,29.89,ESE,112,2.3,2.3,88,0.00,CLR,,0.00,0.0,WeatherDisplay:10.37,2013-03-25 18:25:00,
2013-03-26 04:30:00,72.0,68.2,29.89,South,180,1.1,0.0,88,0.00,CLR,,0.00,0.0,WeatherDisplay:10.37,2013-03-25 18:30:00,
2013-03-26 04:35:00,71.8,68.4,29.89,SE,135,2.3,2.3,89,0.00,CLR,,0.00,0.0,WeatherDisplay:10.37,2013-03-25 18:35:00,
2013-03-26 04:40:00,72.0,68.2,29.89,South,180,3.5,3.5,88,0.00,CLR,,0.00,0.0,WeatherDisplay:10.37,2013-03-25 18:40:00,
2013-03-26 04:45:00,71.8,68.4,29.89,SE,135,3.5,3.5,89,0.00,CLR,,0.00,0.0,WeatherDisplay:10.37,2013-03-25 18:45:00,
2013-03-26 04:50:00,71.8,68.4,29.90,SE,135,1.1,0.0,89,0.00,CLR,,0.00,0.0,WeatherDisplay:10.37,2013-03-25 18:50:00,
2013-03-26 04:55:00,71.8,68.4,29.89,West,270,1.1,0.0,89,0.00,CLR,,0.00,0.0,WeatherDisplay:10.37,2013-03-25 18:55:00,
2013-03-26 05:00:00,71.4,68.7,29.89,West,270,0.0,0.0,91,0.00,CLR,,0.00,0.0,WeatherDisplay:10.37,2013-03-25 19:00:00,
2013-03-26 05:05:00,71.4,68.7,29.90,West,270,0.0,0.0,91,0.00,CLR,,0.00,0.0,WeatherDisplay:10.37,2013-03-25 19:05:00,
2013-03-26 05:10:00,71.6,68.5,29.89,South,180,0.0,0.0,90,0.00,CLR,,0.00,0.0,WeatherDisplay:10.37,2013-03-25 19:10:00,
2013-03-26 05:15:00,72.0,68.5,29.90,South,180,0.0,0.0,89,0.00,CLR,,0.00,0.0,WeatherDisplay:10.37,2013-03-25 19:15:00,
2013-03-26 05:20:00,72.0,68.5,29.90,East,90,0.0,0.0,89,0.00,CLR,,0.00,0.0,WeatherDisplay:10.37,2013-03-25 19:20:00,
2013-03-26 05:25:00,71.6,68.2,29.90,North,0,0.0,0.0,89,0.00,CLR,,0.00,0.0,WeatherDisplay:10.37,2013-03-25 19:25:00,
2013-03-26 05:30:00,71.6,68.2,29.90,NE,45,0.0,0.0,89,0.00,CLR,,0.00,0.0,WeatherDisplay:10.37,2013-03-25 19:30:00,
2013-03-26 05:35:00,71.6,68.5,29.90,East,90,4.6,4.6,90,0.00,CLR,,0.00,0.0,WeatherDisplay:10.37,2013-03-25 19:35:00,
2013-03-26 05:40:00,71.8,68.4,29.90,East,90,3.5,0.0,89,0.00,CLR,,0.00,0.0,WeatherDisplay:10.37,2013-03-25 19:40:00,
2013-03-26 05:45:00,72.1,68.4,29.91,East,90,2.3,0.0,88,0.00,CLR,,0.00,0.0,WeatherDisplay:10.37,2013-03-25 19:45:00,
2013-03-26 05:50:00,72.1,68.4,29.91,NE,45,2.3,0.0,88,0.00,CLR,,0.00,0.0,WeatherDisplay:10.37,2013-03-25 19:50:00,
2013-03-26 05:55:00,72.1,68.4,29.91,East,90,3.5,3.5,88,0.00,CLR,,0.00,0.0,WeatherDisplay:10.37,2013-03-25 19:55:00,
2013-03-26 06:00:00,72.3,68.2,29.91,East,90,6.9,6.9,87,0.00,CLR,,0.00,0.0,WeatherDisplay:10.37,2013-03-25 20:00:00,
2013-03-26 06:05:00,72.9,68.4,29.91,East,90,9.2,9.2,86,0.00,CLR,,0.00,0.0,WeatherDisplay:10.37,2013-03-25 20:05:00,
2013-03-26 06:10:00,73.2,68.4,29.91,East,90,8.1,8.1,85,0.00,CLR,,0.00,0.0,WeatherDisplay:10.37,2013-03-25 20:10:00,
2013-03-26 06:15:00,73.2,68.4,29.92,East,90,4.6,4.6,85,0.00,CLR,,0.00,0.0,WeatherDisplay:10.37,2013-03-25 20:15:00,
2013-03-26 06:20:00,73.2,68.4,29.92,East,90,9.2,9.2,85,0.00,CLR,,0.00,0.0,WeatherDisplay:10.37,2013-03-25 20:20:00,
2013-03-26 06:25:00,73.2,68.4,29.92,East,90,6.9,6.9,85,0.00,CLR,,0.00,0.0,WeatherDisplay:10.37,2013-03-25 20:25:00,
2013-03-26 06:30:00,73.2,68.4,29.92,SE,135,8.3,8.3,85,0.00,CLR,,0.00,1.8,WeatherDisplay:10.37,2013-03-25 20:30:00,
2013-03-26 06:35:00,73.4,69.0,29.92,SE,135,6.9,6.9,86,0.00,CLR,,0.00,6.2,WeatherDisplay:10.37,2013-03-25 20:35:00,
2013-03-26 06:40:00,73.4,69.0,29.92,East,90,6.9,6.9,86,0.00,CLR,,0.00,11.7,WeatherDisplay:10.37,2013-03-25 20:40:00,
2013-03-26 06:45:00,73.4,69.0,29.93,East,90,6.9,6.9,86,0.00,CLR,,0.00,14.9,WeatherDisplay:10.37,2013-03-25 20:45:00,
2013-03-26 06:50:00,73.4,69.0,29.92,East,90,9.2,9.2,86,0.00,BKN,,0.00,22.5,WeatherDisplay:10.37,2013-03-25 20:50:00,
2013-03-26 06:55:00,73.4,69.0,29.93,SE,135,8.1,8.1,86,0.00,BKN,,0.00,30.0,WeatherDisplay:10.37,2013-03-25 20:55:00,
2013-03-26 07:00:00,73.4,69.0,29.93,SE,135,10.4,10.4,86,0.00,BKN,,0.00,38.9,WeatherDisplay:10.37,2013-03-25 21:00:00,
2013-03-26 07:05:00,73.6,68.8,29.93,East,90,6.9,6.9,85,0.00,BKN,,0.00,48.5,WeatherDisplay:10.37,2013-03-25 21:05:00,
2013-03-26 07:10:00,73.4,69.0,29.93,South,180,3.5,3.5,86,0.00,BKN,,0.00,57.8,WeatherDisplay:10.37,2013-03-25 21:10:00,
2013-03-26 07:15:00,72.9,68.4,29.93,East,90,6.0,6.0,86,0.00,BKN,,0.00,67.6,WeatherDisplay:10.37,2013-03-25 21:15:00,
2013-03-26 07:20:00,73.0,68.6,29.93,SE,135,8.1,8.1,86,0.00,BKN,,0.00,73.5,WeatherDisplay:10.37,2013-03-25 21:20:00,
2013-03-26 07:25:00,73.4,69.0,29.93,South,180,5.8,5.8,86,0.00,BKN,,0.00,83.6,WeatherDisplay:10.37,2013-03-25 21:25:00,
2013-03-26 07:30:00,73.4,69.0,29.93,South,180,8.1,8.1,86,0.00,SCT,,0.00,97.9,WeatherDisplay:10.37,2013-03-25 21:30:00,
2013-03-26 07:35:00,73.6,69.1,29.93,SE,135,6.9,6.9,86,0.00,SCT,,0.00,116.6,WeatherDisplay:10.37,2013-03-25 21:35:00,
2013-03-26 07:40:00,73.6,69.1,29.93,SE,135,6.9,6.9,86,0.00,CLR,,0.00,138.5,WeatherDisplay:10.37,2013-03-25 21:40:00,
2013-03-26 07:45:00,73.6,69.1,29.93,SE,135,5.8,5.8,86,0.00,CLR,,0.00,151.2,WeatherDisplay:10.37,2013-03-25 21:45:00,
2013-03-26 07:50:00,73.9,69.5,29.93,SSE,158,5.8,5.8,86,0.00,CLR,,0.00,122.0,WeatherDisplay:10.37,2013-03-25 21:50:00,
2013-03-26 07:55:00,74.3,69.8,29.94,South,180,5.8,5.8,86,0.00,CLR,,0.00,196.1,WeatherDisplay:10.37,2013-03-25 21:55:00,
2013-03-26 08:00:00,74.7,69.8,29.94,South,180,5.8,5.8,85,0.00,CLR,,0.00,167.8,WeatherDisplay:10.37,2013-03-25 22:00:00,
2013-03-26 08:05:00,74.7,69.8,29.94,South,180,5.8,5.8,85,0.00,CLR,,0.00,170.8,WeatherDisplay:10.37,2013-03-25 22:05:00,
2013-03-26 08:10:00,74.8,70.0,29.95,SE,135,5.8,5.8,85,0.00,CLR,,0.00,180.6,WeatherDisplay:10.37,2013-03-25 22:10:00,
2013-03-26 08:15:00,74.8,70.0,29.95,South,180,6.9,6.9,85,0.00,CLR,,0.00,201.9,WeatherDisplay:10.37,2013-03-25 22:15:00,
2013-03-26 08:20:00,75.0,70.2,29.95,South,180,6.9,6.9,85,0.00,CLR,,0.00,211.0,WeatherDisplay:10.37,2013-03-25 22:20:00,
2013-03-26 08:25:00,75.2,70.0,29.95,SW,225,9.2,9.2,84,0.00,CLR,,0.00,219.3,WeatherDisplay:10.37,2013-03-25 22:25:00,
2013-03-26 08:30:00,75.4,69.9,29.95,South,180,8.1,8.1,83,0.00,OVC,,0.00,236.0,WeatherDisplay:10.37,2013-03-25 22:30:00,
2013-03-26 08:35:00,75.6,69.7,29.95,SE,135,11.5,11.5,82,0.00,OVC,,0.00,254.9,WeatherDisplay:10.37,2013-03-25 22:35:00,
2013-03-26 08:40:00,76.1,69.1,29.95,SE,135,5.8,5.8,79,0.00,OVC,,0.00,278.5,WeatherDisplay:10.37,2013-03-25 22:40:00,
2013-03-26 08:45:00,76.3,69.7,29.96,ESE,112,5.8,5.8,80,0.00,OVC,,0.00,298.0,WeatherDisplay:10.37,2013-03-25 22:45:00,
2013-03-26 08:50:00,76.6,70.0,29.96,SE,135,5.8,5.8,80,0.00,OVC,,0.00,363.6,WeatherDisplay:10.37,2013-03-25 22:50:00,
2013-03-26 08:56:00,77.4,69.6,29.96,SE,135,5.8,5.8,77,0.00,OVC,,0.00,354.4,WeatherDisplay:10.37,2013-03-25 22:56:00,
2013-03-26 09:01:00,77.5,69.4,29.95,South,180,5.8,5.8,76,0.00,OVC,,0.00,425.6,WeatherDisplay:10.37,2013-03-25 23:01:00,
2013-03-26 09:06:00,77.7,69.2,29.96,SE,135,5.8,5.8,75,0.00,OVC,,0.00,362.0,WeatherDisplay:10.37,2013-03-25 23:06:00,
2013-03-26 09:11:00,77.7,69.5,29.96,SE,135,5.8,5.8,76,0.00,OVC,,0.00,367.2,WeatherDisplay:10.37,2013-03-25 23:11:00,
2013-03-26 09:16:00,77.7,69.2,29.96,SE,135,5.8,5.8,75,0.00,OVC,,0.00,398.0,WeatherDisplay:10.37,2013-03-25 23:16:00,
2013-03-26 09:21:00,78.1,69.5,29.96,South,180,8.1,8.1,75,0.00,OVC,,0.00,494.6,WeatherDisplay:10.37,2013-03-25 23:21:00,
2013-03-26 09:26:00,78.6,70.0,29.96,SE,135,5.8,5.8,75,0.00,OVC,,0.00,438.7,WeatherDisplay:10.37,2013-03-25 23:26:00,
2013-03-26 09:31:00,78.8,69.4,29.96,SE,135,9.2,9.2,73,0.00,OVC,,0.00,418.1,WeatherDisplay:10.37,2013-03-25 23:31:00,
2013-03-26 09:36:00,78.8,68.6,29.96,SE,135,10.4,10.4,71,0.00,OVC,,0.00,418.0,WeatherDisplay:10.37,2013-03-25 23:36:00,
2013-03-26 09:41:00,79.5,69.3,29.96,East,90,15.0,15.0,71,0.00,OVC,,0.00,724.1,WeatherDisplay:10.37,2013-03-25 23:41:00,
2013-03-26 09:46:00,79.9,69.2,29.96,SE,135,12.7,12.7,70,0.00,OVC,,0.00,638.9,WeatherDisplay:10.37,2013-03-25 23:46:00,
2013-03-26 09:51:00,79.5,69.7,29.96,SE,135,11.5,11.5,72,0.00,OVC,,0.00,459.4,WeatherDisplay:10.37,2013-03-25 23:51:00,
2013-03-26 09:56:00,80.1,70.2,29.96,South,180,10.4,10.4,72,0.00,OVC,,0.00,728.1,WeatherDisplay:10.37,2013-03-25 23:56:00,
2013-03-26 10:02:00,80.1,69.8,29.96,East,90,15.0,15.0,71,0.00,OVC,,0.00,577.7,WeatherDisplay:10.37,2013-03-26 00:02:00,
2013-03-26 10:07:00,79.5,68.9,29.96,SE,135,15.0,15.0,70,0.00,OVC,,0.00,472.1,WeatherDisplay:10.37,2013-03-26 00:07:00,
2013-03-26 10:12:00,79.5,68.5,29.96,SE,135,18.4,18.4,69,0.00,OVC,,0.00,504.4,WeatherDisplay:10.37,2013-03-26 00:12:00,
2013-03-26 10:17:00,79.2,68.1,29.96,SE,135,19.6,19.6,69,0.00,OVC,,0.00,584.3,WeatherDisplay:10.37,2013-03-26 00:17:00,
2013-03-26 10:22:00,79.7,68.6,29.96,SE,135,20.7,20.7,69,0.00,OVC,,0.00,584.9,WeatherDisplay:10.37,2013-03-26 00:22:00,
2013-03-26 10:27:00,79.7,68.6,29.96,SE,135,17.3,17.3,69,0.00,OVC,,0.00,626.4,WeatherDisplay:10.37,2013-03-26 00:27:00,
2013-03-26 10:32:00,80.1,69.0,29.96,SE,135,17.3,17.3,69,0.00,OVC,,0.00,832.5,WeatherDisplay:10.37,2013-03-26 00:32:00,
2013-03-26 10:37:00,80.8,69.2,29.96,South,180,19.6,19.6,68,0.00,OVC,,0.00,497.1,WeatherDisplay:10.37,2013-03-26 00:37:00,
2013-03-26 10:42:00,80.4,69.3,29.96,SE,135,12.7,12.7,69,0.00,OVC,,0.00,568.7,WeatherDisplay:10.37,2013-03-26 00:42:00,
2013-03-26 10:47:00,81.3,69.7,29.97,East,90,9.2,9.2,68,0.00,OVC,,0.00,630.3,WeatherDisplay:10.37,2013-03-26 00:47:00,
2013-03-26 10:52:00,81.9,69.8,29.96,East,90,10.4,10.4,67,0.00,OVC,,0.00,630.5,WeatherDisplay:10.37,2013-03-26 00:52:00,
2013-03-26 10:57:00,81.5,69.5,29.96,East,90,12.7,12.7,67,0.00,OVC,,0.00,736.1,WeatherDisplay:10.37,2013-03-26 00:57:00,
2013-03-26 11:02:00,81.5,69.0,29.96,ESE,112,18.4,18.4,66,0.00,OVC,,0.00,719.5,WeatherDisplay:10.37,2013-03-26 01:02:00,
2013-03-26 11:07:00,81.3,69.3,29.96,SE,135,13.0,13.0,67,0.00,OVC,,0.00,677.5,WeatherDisplay:10.37,2013-03-26 01:07:00,
2013-03-26 11:12:00,81.9,69.8,29.95,SE,135,12.7,12.7,67,0.00,OVC,,0.00,593.3,WeatherDisplay:10.37,2013-03-26 01:12:00,
2013-03-26 11:17:00,82.0,69.6,29.96,NE,45,15.0,15.0,66,0.00,OVC,,0.00,919.8,WeatherDisplay:10.37,2013-03-26 01:17:00,
2013-03-26 11:22:00,82.8,70.2,29.95,SE,135,15.0,15.0,66,0.00,OVC,,0.00,848.8,WeatherDisplay:10.37,2013-03-26 01:22:00,
2013-03-26 11:27:00,81.5,69.0,29.96,East,90,19.6,19.6,66,0.00,OVC,,0.00,646.4,WeatherDisplay:10.37,2013-03-26 01:27:00,
2013-03-26 11:32:00,81.7,70.5,29.96,NE,45,13.8,13.8,69,0.00,OVC,,0.00,576.0,WeatherDisplay:10.37,2013-03-26 01:32:00,
2013-03-26 11:37:00,81.1,70.0,29.96,SE,135,13.8,13.8,69,0.00,OVC,,0.00,448.2,WeatherDisplay:10.37,2013-03-26 01:37:00,
2013-03-26 11:42:00,81.0,69.8,29.96,ESE,112,13.8,13.8,69,0.00,OVC,,0.00,841.9,WeatherDisplay:10.37,2013-03-26 01:42:00,
2013-03-26 11:47:00,82.2,70.6,29.95,East,90,14.5,14.5,68,0.00,OVC,,0.00,1489.1,WeatherDisplay:10.37,2013-03-26 01:47:00,
2013-03-26 11:53:00,83.1,70.6,29.95,SE,135,18.4,18.4,66,0.00,OVC,,0.00,631.6,WeatherDisplay:10.37,2013-03-26 01:53:00,
2013-03-26 11:58:00,82.8,70.2,29.95,SE,135,12.7,12.7,66,0.00,OVC,,0.00,780.3,WeatherDisplay:10.37,2013-03-26 01:58:00,
2013-03-26 12:03:00,82.4,70.3,29.95,SE,135,19.6,19.6,67,0.00,OVC,,0.00,1153.3,WeatherDisplay:10.37,2013-03-26 02:03:00,
2013-03-26 12:08:00,82.4,69.9,29.95,SE,135,20.7,20.7,66,0.00,OVC,,0.00,809.7,WeatherDisplay:10.37,2013-03-26 02:08:00,
2013-03-26 12:13:00,83.3,70.8,29.94,East,90,19.6,19.6,66,0.00,OVC,,0.00,1729.0,WeatherDisplay:10.37,2013-03-26 02:13:00,
2013-03-26 12:18:00,83.5,70.5,29.94,SE,135,23.0,23.0,65,0.00,OVC,,0.00,1722.1,WeatherDisplay:10.37,2013-03-26 02:18:00,
2013-03-26 12:23:00,83.5,69.6,29.93,SE,135,20.7,20.7,63,0.00,OVC,,0.00,1650.3,WeatherDisplay:10.37,2013-03-26 02:23:00,
2013-03-26 12:28:00,83.8,69.9,29.93,SSE,158,18.4,18.4,63,0.00,OVC,,0.00,1640.4,WeatherDisplay:10.37,2013-03-26 02:28:00,
2013-03-26 12:33:00,84.2,69.3,29.93,SE,135,21.9,21.9,61,0.00,OVC,,0.00,1676.9,WeatherDisplay:10.37,2013-03-26 02:33:00,
2013-03-26 12:38:00,84.9,70.0,29.93,East,90,18.4,18.4,61,0.00,OVC,,0.00,1735.6,WeatherDisplay:10.37,2013-03-26 02:38:00,
2013-03-26 12:43:00,85.6,70.2,29.92,SE,135,21.3,21.3,60,0.00,OVC,,0.00,1090.8,WeatherDisplay:10.37,2013-03-26 02:43:00,
2013-03-26 12:48:00,84.2,68.8,29.92,East,90,18.4,18.4,60,0.00,OVC,,0.00,1203.0,WeatherDisplay:10.37,2013-03-26 02:48:00,
2013-03-26 12:53:00,84.9,70.4,29.92,East,90,19.6,19.6,62,0.00,OVC,,0.00,1483.6,WeatherDisplay:10.37,2013-03-26 02:53:00,
2013-03-26 12:58:00,85.1,70.1,29.92,NE,45,15.0,15.0,61,0.00,OVC,,0.00,1659.4,WeatherDisplay:10.37,2013-03-26 02:58:00,
2013-03-26 13:03:00,86.5,70.5,29.91,ENE,68,15.0,15.0,59,0.00,OVC,,0.00,1882.9,WeatherDisplay:10.37,2013-03-26 03:03:00,
2013-03-26 13:08:00,85.5,71.0,29.91,SE,135,19.6,19.6,62,0.00,OVC,,0.00,498.7,WeatherDisplay:10.37,2013-03-26 03:08:00,
2013-03-26 13:13:00,84.2,70.7,29.91,SE,135,19.6,19.6,64,0.00,OVC,,0.00,1201.3,WeatherDisplay:10.37,2013-03-26 03:13:00,
2013-03-26 13:18:00,83.5,71.4,29.91,SE,135,19.6,19.6,67,0.00,OVC,,0.00,1902.1,WeatherDisplay:10.37,2013-03-26 03:18:00,
2013-03-26 13:23:00,84.4,70.9,29.91,SE,135,19.6,19.6,64,0.00,OVC,,0.00,785.9,WeatherDisplay:10.37,2013-03-26 03:23:00,
2013-03-26 13:28:00,84.2,70.7,29.91,East,90,23.0,23.0,64,0.00,OVC,,0.00,1508.3,WeatherDisplay:10.37,2013-03-26 03:28:00,
2013-03-26 13:33:00,84.2,70.2,29.91,SE,135,20.7,20.7,63,0.00,OVC,,0.00,1489.0,WeatherDisplay:10.37,2013-03-26 03:33:00,
2013-03-26 13:38:00,83.5,68.1,29.90,ENE,68,23.0,23.0,60,0.00,OVC,,0.00,1448.3,WeatherDisplay:10.37,2013-03-26 03:38:00,
2013-03-26 13:43:00,83.7,69.3,29.90,East,90,20.7,20.7,62,0.00,OVC,,0.00,1427.5,WeatherDisplay:10.37,2013-03-26 03:43:00,
2013-03-26 13:48:00,84.2,68.3,29.90,SE,135,20.7,20.7,59,0.00,OVC,,0.00,1442.7,WeatherDisplay:10.37,2013-03-26 03:48:00,
2013-03-26 13:53:00,85.3,69.3,29.89,SE,135,17.3,17.3,59,0.00,OVC,,0.00,1444.6,WeatherDisplay:10.37,2013-03-26 03:53:00,
2013-03-26 13:58:00,85.5,69.0,29.89,SE,135,17.3,17.3,58,0.00,OVC,,0.00,1471.5,WeatherDisplay:10.37,2013-03-26 03:58:00,
2013-03-26 14:00:00,85.6,69.7,29.89,SE,135,16.1,16.1,59,0.00,OVC,,0.00,1059.0,WeatherDisplay:10.37,2013-03-26 04:00:00,
2013-03-26 14:05:00,85.5,69.0,29.89,SE,135,20.7,20.7,58,0.00,OVC,,0.00,416.9,WeatherDisplay:10.37,2013-03-26 04:05:00,
2013-03-26 14:10:00,85.3,70.3,29.89,SE,135,17.3,17.3,61,0.00,OVC,,0.00,1463.7,WeatherDisplay:10.37,2013-03-26 04:10:00,
2013-03-26 14:15:00,86.5,70.0,29.89,East,90,16.1,16.1,58,0.00,OVC,,0.00,1388.7,WeatherDisplay:10.37,2013-03-26 04:15:00,
2013-03-26 14:20:00,86.0,69.0,29.88,SE,135,20.7,20.7,57,0.00,OVC,,0.00,956.5,WeatherDisplay:10.37,2013-03-26 04:20:00,
2013-03-26 14:25:00,85.6,69.7,29.88,SE,135,16.1,16.1,59,0.00,OVC,,0.00,1462.2,WeatherDisplay:10.37,2013-03-26 04:25:00,
2013-03-26 14:30:00,85.5,69.0,29.88,East,90,21.9,21.9,58,0.00,OVC,,0.00,1211.4,WeatherDisplay:10.37,2013-03-26 04:30:00,
2013-03-26 14:35:00,84.9,69.5,29.89,East,90,20.7,20.7,60,0.00,OVC,,0.00,494.8,WeatherDisplay:10.37,2013-03-26 04:35:00,
2013-03-26 14:40:00,83.7,69.3,29.88,East,90,20.6,20.6,62,0.00,OVC,,0.00,1422.6,WeatherDisplay:10.37,2013-03-26 04:40:00,
2013-03-26 14:45:00,84.2,69.3,29.88,SE,135,19.6,19.6,61,0.00,OVC,,0.00,1219.0,WeatherDisplay:10.37,2013-03-26 04:45:00,
2013-03-26 14:50:00,85.1,70.1,29.88,East,90,19.6,19.6,61,0.00,OVC,,0.00,526.6,WeatherDisplay:10.37,2013-03-26 04:50:00,
2013-03-26 14:55:00,83.8,69.9,29.89,SE,135,12.7,12.7,63,0.00,OVC,,0.00,332.3,WeatherDisplay:10.37,2013-03-26 04:55:00,
2013-03-26 15:00:00,83.3,70.3,29.89,SE,135,9.2,9.2,65,0.00,OVC,,0.00,1009.9,WeatherDisplay:10.37,2013-03-26 05:00:00,
2013-03-26 15:05:00,84.2,69.3,29.89,SE,135,15.0,15.0,61,0.00,OVC,,0.00,515.6,WeatherDisplay:10.37,2013-03-26 05:05:00,
2013-03-26 15:10:00,83.5,70.5,29.89,SE,135,15.0,15.0,65,0.00,OVC,,0.00,1360.0,WeatherDisplay:10.37,2013-03-26 05:10:00,
2013-03-26 15:15:00,84.2,70.7,29.89,SE,135,12.7,12.7,64,0.00,OVC,,0.00,833.4,WeatherDisplay:10.37,2013-03-26 05:15:00,
2013-03-26 15:20:00,84.7,71.2,29.89,SE,135,13.8,13.8,64,0.00,OVC,,0.00,645.9,WeatherDisplay:10.37,2013-03-26 05:20:00,
2013-03-26 15:25:00,83.7,70.6,29.89,East,90,12.7,13.7,65,0.00,OVC,,0.00,465.4,WeatherDisplay:10.37,2013-03-26 05:25:00,
2013-03-26 15:30:00,82.8,70.2,29.88,South,180,16.1,16.1,66,0.00,OVC,,0.00,610.9,WeatherDisplay:10.37,2013-03-26 05:30:00,
2013-03-26 15:35:00,82.4,69.4,29.88,SE,135,15.0,15.0,65,0.00,OVC,,0.00,429.1,WeatherDisplay:10.37,2013-03-26 05:35:00,
2013-03-26 15:40:00,83.5,70.5,29.88,North,0,10.4,10.4,65,0.00,OVC,,0.00,490.5,WeatherDisplay:10.37,2013-03-26 05:40:00,
2013-03-26 15:45:00,83.5,70.5,29.88,East,90,9.2,9.2,65,0.00,OVC,,0.00,278.6,WeatherDisplay:10.37,2013-03-26 05:45:00,
2013-03-26 15:50:00,83.5,70.5,29.88,SE,135,10.4,10.4,65,0.00,OVC,,0.00,456.4,WeatherDisplay:10.37,2013-03-26 05:50:00,
2013-03-26 15:55:00,83.5,70.5,29.88,East,90,17.3,17.3,65,0.00,OVC,,0.00,472.2,WeatherDisplay:10.37,2013-03-26 05:55:00,
2013-03-26 16:00:00,83.1,70.1,29.88,East,90,13.8,13.8,65,0.00,OVC,,0.00,951.3,WeatherDisplay:10.37,2013-03-26 06:00:00,
2013-03-26 16:05:00,84.0,71.0,29.88,SE,135,11.5,11.5,65,0.00,OVC,,0.00,1025.8,WeatherDisplay:10.37,2013-03-26 06:05:00,
2013-03-26 16:10:00,84.7,70.3,29.89,East,90,12.7,12.7,62,0.00,OVC,,0.00,243.1,WeatherDisplay:10.37,2013-03-26 06:10:00,
2013-03-26 16:15:00,82.8,69.3,29.88,East,90,12.7,12.7,64,0.00,OVC,,0.00,195.5,WeatherDisplay:10.37,2013-03-26 06:15:00,
2013-03-26 16:20:00,82.8,69.8,29.89,East,90,13.8,13.8,65,0.00,OVC,,0.00,691.4,WeatherDisplay:10.37,2013-03-26 06:20:00,
2013-03-26 16:25:00,82.9,70.4,29.88,East,90,17.3,17.3,66,0.00,OVC,,0.00,616.4,WeatherDisplay:10.37,2013-03-26 06:25:00,
2013-03-26 16:30:00,83.7,70.6,29.89,East,90,11.5,11.5,65,0.00,OVC,,0.00,441.2,WeatherDisplay:10.37,2013-03-26 06:30:00,
2013-03-26 16:36:00,82.9,70.0,29.89,East,90,10.4,10.4,65,0.00,OVC,,0.00,509.6,WeatherDisplay:10.37,2013-03-26 06:36:00,
2013-03-26 16:41:00,83.3,69.8,29.89,SE,135,13.8,13.8,64,0.00,OVC,,0.00,519.2,WeatherDisplay:10.37,2013-03-26 06:41:00,
2013-03-26 16:46:00,83.5,70.0,29.88,SE,135,19.6,19.6,64,0.00,OVC,,0.00,572.9,WeatherDisplay:10.37,2013-03-26 06:46:00,
2013-03-26 16:51:00,83.1,69.7,29.89,SE,135,15.0,15.0,64,0.00,OVC,,0.00,540.7,WeatherDisplay:10.37,2013-03-26 06:51:00,
2013-03-26 16:56:00,82.9,70.0,29.89,SSE,158,17.3,17.3,65,0.00,OVC,,0.00,470.3,WeatherDisplay:10.37,2013-03-26 06:56:00,
2013-03-26 17:01:00,82.8,69.8,29.90,East,90,17.3,17.3,65,0.00,CLR,,0.00,402.3,WeatherDisplay:10.37,2013-03-26 07:01:00,
2013-03-26 17:06:00,82.4,69.4,29.90,SE,135,12.7,12.7,65,0.00,CLR,,0.00,343.4,WeatherDisplay:10.37,2013-03-26 07:06:00,
2013-03-26 17:11:00,82.8,70.2,29.90,SE,135,10.4,10.4,66,0.00,CLR,,0.00,312.6,WeatherDisplay:10.37,2013-03-26 07:11:00,
2013-03-26 17:16:00,82.8,69.8,29.91,SE,135,15.0,15.0,65,0.00,CLR,,0.00,260.8,WeatherDisplay:10.37,2013-03-26 07:16:00,
2013-03-26 17:21:00,81.5,69.5,29.91,East,90,10.4,10.4,67,0.00,CLR,,0.00,266.3,WeatherDisplay:10.37,2013-03-26 07:21:00,
2013-03-26 17:26:00,82.0,70.0,29.91,SE,135,8.1,8.1,67,0.00,CLR,,0.00,236.6,WeatherDisplay:10.37,2013-03-26 07:26:00,
2013-03-26 17:31:00,81.7,69.7,29.91,East,90,9.2,9.2,67,0.00,CLR,,0.00,185.9,WeatherDisplay:10.37,2013-03-26 07:31:00,
2013-03-26 17:36:00,81.9,70.3,29.91,East,90,9.2,9.2,68,0.00,CLR,,0.00,175.7,WeatherDisplay:10.37,2013-03-26 07:36:00,
2013-03-26 17:42:00,81.5,69.9,29.91,South,180,8.3,8.3,68,0.00,CLR,,0.00,153.2,WeatherDisplay:10.37,2013-03-26 07:42:00,
2013-03-26 17:47:00,81.0,69.8,29.91,SE,135,11.5,11.5,69,0.00,CLR,,0.00,148.6,WeatherDisplay:10.37,2013-03-26 07:47:00,
2013-03-26 17:52:00,80.2,70.0,29.91,SE,135,11.5,11.5,71,0.00,CLR,,0.00,152.2,WeatherDisplay:10.37,2013-03-26 07:52:00,
2013-03-26 17:57:00,79.7,69.5,29.91,SE,135,13.8,13.8,71,0.00,CLR,,0.00,54.1,WeatherDisplay:10.37,2013-03-26 07:57:00,
2013-03-26 18:02:00,79.0,69.2,29.91,East,90,17.3,17.3,72,0.00,CLR,,0.00,50.8,WeatherDisplay:10.37,2013-03-26 08:02:00,
2013-03-26 18:07:00,78.3,69.3,29.91,SE,135,10.4,10.4,74,0.00,CLR,,0.00,23.1,WeatherDisplay:10.37,2013-03-26 08:07:00,
2013-03-26 18:12:00,78.3,69.7,29.91,East,90,12.7,12.7,75,0.00,CLR,,0.00,18.1,WeatherDisplay:10.37,2013-03-26 08:12:00,
2013-03-26 18:17:00,77.7,69.5,29.91,East,90,10.4,10.4,76,0.00,CLR,,0.00,12.3,WeatherDisplay:10.37,2013-03-26 08:17:00,
2013-03-26 18:22:00,77.7,69.5,29.92,East,90,10.4,10.4,76,0.00,CLR,,0.00,4.6,WeatherDisplay:10.37,2013-03-26 08:22:00,
2013-03-26 18:27:00,77.4,69.2,29.92,SE,135,15.0,15.0,76,0.00,CLR,,0.00,0.0,WeatherDisplay:10.37,2013-03-26 08:27:00,
2013-03-26 18:32:00,77.2,69.0,29.92,SE,135,10.4,10.4,76,0.00,CLR,,0.00,0.0,WeatherDisplay:10.37,2013-03-26 08:32:00,
2013-03-26 18:37:00,77.0,69.2,29.93,East,90,10.4,10.4,77,0.00,CLR,,0.00,0.0,WeatherDisplay:10.37,2013-03-26 08:37:00,
2013-03-26 18:42:00,77.0,69.2,29.93,East,90,11.5,11.5,77,0.00,CLR,,0.00,0.0,WeatherDisplay:10.37,2013-03-26 08:42:00,
2013-03-26 18:47:00,76.8,69.4,29.93,SE,135,11.5,11.5,78,0.00,CLR,,0.00,0.0,WeatherDisplay:10.37,2013-03-26 08:47:00,
2013-03-26 18:52:00,76.6,69.6,29.93,South,180,10.4,10.4,79,0.00,CLR,,0.00,0.0,WeatherDisplay:10.37,2013-03-26 08:52:00,
2013-03-26 18:57:00,76.5,69.5,29.93,SE,135,10.4,10.4,79,0.00,CLR,,0.00,0.0,WeatherDisplay:10.37,2013-03-26 08:57:00,
2013-03-26 19:02:00,76.6,69.6,29.93,SE,135,17.3,17.3,79,0.00,CLR,,0.00,0.0,WeatherDisplay:10.37,2013-03-26 09:02:00,
2013-03-26 19:07:00,76.6,69.6,29.94,NE,45,10.4,10.4,79,0.00,CLR,,0.00,0.0,WeatherDisplay:10.37,2013-03-26 09:07:00,
2013-03-26 19:12:00,76.5,69.5,29.94,SE,135,10.4,10.4,79,0.00,CLR,,0.00,0.0,WeatherDisplay:10.37,2013-03-26 09:12:00,
2013-03-26 19:17:00,76.1,69.5,29.94,NE,45,5.8,5.8,80,0.00,CLR,,0.00,0.0,WeatherDisplay:10.37,2013-03-26 09:17:00,
2013-03-26 19:23:00,75.9,69.7,29.95,East,90,5.8,6.9,81,0.00,CLR,,0.00,0.0,WeatherDisplay:10.37,2013-03-26 09:23:00,
2013-03-26 19:28:00,75.7,69.5,29.95,East,90,8.1,8.1,81,0.00,CLR,,0.00,0.0,WeatherDisplay:10.37,2013-03-26 09:28:00,
2013-03-26 19:33:00,75.6,69.7,29.95,SE,135,5.8,5.8,82,0.00,CLR,,0.00,0.0,WeatherDisplay:10.37,2013-03-26 09:33:00,
2013-03-26 19:38:00,75.4,69.5,29.95,East,90,5.8,5.8,82,0.00,CLR,,0.00,0.0,WeatherDisplay:10.37,2013-03-26 09:38:00,
2013-03-26 19:43:00,75.2,69.7,29.95,NE,45,3.5,3.5,83,0.00,CLR,,0.00,0.0,WeatherDisplay:10.37,2013-03-26 09:43:00,
2013-03-26 19:48:00,75.0,70.2,29.95,ENE,68,3.5,3.8,85,0.00,CLR,,0.00,0.0,WeatherDisplay:10.37,2013-03-26 09:48:00,
2013-03-26 19:53:00,75.0,70.2,29.95,SE,135,8.1,8.1,85,0.00,CLR,,0.00,0.0,WeatherDisplay:10.37,2013-03-26 09:53:00,
2013-03-26 19:58:00,74.8,70.0,29.95,East,90,4.6,4.6,85,0.00,CLR,,0.00,0.0,WeatherDisplay:10.37,2013-03-26 09:58:00,
2013-03-26 20:03:00,74.7,70.2,29.95,SE,135,3.5,3.5,86,0.00,CLR,,0.00,0.0,WeatherDisplay:10.37,2013-03-26 10:03:00,
2013-03-26 20:08:00,74.5,70.0,29.96,East,90,4.6,4.6,86,0.00,CLR,,0.00,0.0,WeatherDisplay:10.37,2013-03-26 10:08:00,
2013-03-26 20:13:00,74.3,69.8,29.96,SE,135,3.5,3.5,86,0.00,CLR,,0.00,0.0,WeatherDisplay:10.37,2013-03-26 10:13:00,
2013-03-26 20:18:00,74.3,69.8,29.96,NE,45,0.0,0.0,86,0.00,CLR,,0.00,0.0,WeatherDisplay:10.37,2013-03-26 10:18:00,
2013-03-26 20:23:00,74.1,69.7,29.97,East,90,0.0,0.0,86,0.00,CLR,,0.00,0.0,WeatherDisplay:10.37,2013-03-26 10:23:00,
2013-03-26 20:28:00,73.8,69.3,29.96,NE,45,0.0,0.0,86,0.00,CLR,,0.00,0.0,WeatherDisplay:10.37,2013-03-26 10:28:00,
2013-03-26 20:33:00,73.2,69.1,29.97,NE,45,0.0,0.0,87,0.00,CLR,,0.00,0.0,WeatherDisplay:10.37,2013-03-26 10:33:00,
2013-03-26 20:38:00,72.7,68.6,29.97,NE,45,0.0,0.0,87,0.00,CLR,,0.00,0.0,WeatherDisplay:10.37,2013-03-26 10:38:00,
2013-03-26 20:43:00,72.3,68.6,29.96,NW,315,0.0,0.0,88,0.00,CLR,,0.00,0.0,WeatherDisplay:10.37,2013-03-26 10:43:00,
2013-03-26 20:48:00,71.8,68.4,29.97,South,180,0.0,0.0,89,0.00,CLR,,0.00,0.0,WeatherDisplay:10.37,2013-03-26 10:48:00,
2013-03-26 20:53:00,71.4,68.7,29.97,NW,315,0.0,0.0,91,0.00,CLR,,0.00,0.0,WeatherDisplay:10.37,2013-03-26 10:53:00,
2013-03-26 20:58:00,71.4,69.0,29.98,NW,315,0.0,0.0,92,0.00,CLR,,0.00,0.0,WeatherDisplay:10.37,2013-03-26 10:58:00,
2013-03-26 21:03:00,71.2,68.8,29.97,SW,225,0.0,0.0,92,0.00,CLR,,0.00,0.0,WeatherDisplay:10.37,2013-03-26 11:03:00,
2013-03-26 21:08:00,71.2,69.1,29.98,South,180,3.5,3.5,93,0.00,CLR,,0.00,0.0,WeatherDisplay:10.37,2013-03-26 11:08:00,
2013-03-26 21:13:00,71.6,69.2,29.97,SE,135,2.3,2.3,92,0.00,CLR,,0.00,0.0,WeatherDisplay:10.37,2013-03-26 11:13:00,
2013-03-26 21:18:00,72.0,69.5,29.97,SE,135,3.5,3.5,92,0.00,CLR,,0.00,0.0,WeatherDisplay:10.37,2013-03-26 11:18:00,
2013-03-26 21:23:00,72.5,70.0,29.97,East,90,1.1,0.0,92,0.00,CLR,,0.00,0.0,WeatherDisplay:10.37,2013-03-26 11:23:00,
2013-03-26 21:28:00,72.9,70.1,29.97,East,90,5.8,5.8,91,0.00,CLR,,0.00,0.0,WeatherDisplay:10.37,2013-03-26 11:28:00,
2013-03-26 21:33:00,73.2,69.8,29.97,East,90,4.6,4.6,89,0.00,CLR,,0.00,0.0,WeatherDisplay:10.37,2013-03-26 11:33:00,
2013-03-26 21:38:00,73.4,70.0,29.97,East,90,5.8,5.8,89,0.00,CLR,,0.00,0.0,WeatherDisplay:10.37,2013-03-26 11:38:00,
2013-03-26 21:43:00,73.4,69.6,29.97,SE,135,5.8,5.8,88,0.00,CLR,,0.00,0.0,WeatherDisplay:10.37,2013-03-26 11:43:00,
2013-03-26 21:48:00,73.6,69.8,29.97,SE,135,5.8,5.8,88,0.00,CLR,,0.00,0.0,WeatherDisplay:10.37,2013-03-26 11:48:00,
2013-03-26 21:53:00,73.8,70.0,29.97,SE,135,3.5,0.0,88,0.00,CLR,,0.00,0.0,WeatherDisplay:10.37,2013-03-26 11:53:00,
2013-03-26 21:58:00,73.2,69.1,29.97,SE,135,3.8,3.8,87,0.00,CLR,,0.00,0.0,WeatherDisplay:10.37,2013-03-26 11:58:00,
2013-03-26 22:03:00,72.9,69.1,29.97,East,90,1.1,2.2,88,0.00,CLR,,0.00,0.0,WeatherDisplay:10.37,2013-03-26 12:03:00,
2013-03-26 22:08:00,72.5,69.1,29.98,NE,45,2.3,2.3,89,0.00,CLR,,0.00,0.0,WeatherDisplay:10.37,2013-03-26 12:08:00,
2013-03-26 22:13:00,72.1,69.0,29.97,NE,45,2.3,2.3,90,0.00,CLR,,0.00,0.0,WeatherDisplay:10.37,2013-03-26 12:13:00,
2013-03-26 22:18:00,72.0,68.9,29.97,SE,135,0.0,0.0,90,0.00,CLR,,0.00,0.0,WeatherDisplay:10.37,2013-03-26 12:18:00,
2013-03-26 22:23:00,71.8,68.7,29.98,East,90,0.0,0.0,90,0.00,CLR,,0.00,0.0,WeatherDisplay:10.37,2013-03-26 12:23:00,
2013-03-26 22:28:00,71.6,68.8,29.97,NW,315,0.0,0.0,91,0.00,CLR,,0.00,0.0,WeatherDisplay:10.37,2013-03-26 12:28:00,
2013-03-26 22:33:00,71.1,68.6,29.98,North,0,1.1,0.0,92,0.00,CLR,,0.00,0.0,WeatherDisplay:10.37,2013-03-26 12:33:00,
2013-03-26 22:38:00,70.7,68.3,29.98,NW,315,0.0,0.0,92,0.00,CLR,,0.00,0.0,WeatherDisplay:10.37,2013-03-26 12:38:00,
2013-03-26 22:43:00,70.5,68.4,29.98,West,270,0.0,0.0,93,0.00,CLR,,0.00,0.0,WeatherDisplay:10.37,2013-03-26 12:43:00,
2013-03-26 22:48:00,70.3,68.2,29.98,West,270,0.0,0.0,93,0.00,CLR,,0.00,0.0,WeatherDisplay:10.37,2013-03-26 12:48:00,
2013-03-26 22:53:00,70.3,68.5,29.98,NW,315,0.0,0.0,94,0.00,CLR,,0.00,0.0,WeatherDisplay:10.37,2013-03-26 12:53:00,
2013-03-26 22:58:00,70.3,68.5,29.99,NW,315,0.0,0.0,94,0.00,CLR,,0.00,0.0,WeatherDisplay:10.37,2013-03-26 12:58:00,
2013-03-26 23:03:00,70.3,68.5,29.98,SE,135,0.0,0.0,94,0.00,CLR,,0.00,0.0,WeatherDisplay:10.37,2013-03-26 13:03:00,
2013-03-26 23:08:00,70.2,68.4,29.98,SE,135,0.0,0.0,94,0.00,CLR,,0.00,0.0,WeatherDisplay:10.37,2013-03-26 13:08:00,
2013-03-26 23:13:00,70.2,68.4,29.98,NW,315,0.0,0.0,94,0.00,CLR,,0.00,0.0,WeatherDisplay:10.37,2013-03-26 13:13:00,
2013-03-26 23:18:00,70.2,68.4,29.98,NW,315,0.0,0.0,94,0.00,CLR,,0.00,0.0,WeatherDisplay:10.37,2013-03-26 13:18:00,
2013-03-26 23:23:00,70.3,68.5,29.98,SW,225,0.0,0.0,94,0.00,CLR,,0.00,0.0,WeatherDisplay:10.37,2013-03-26 13:23:00,
2013-03-26 23:28:00,70.2,68.4,29.97,South,180,0.0,0.0,94,0.00,CLR,,0.00,0.0,WeatherDisplay:10.37,2013-03-26 13:28:00,
2013-03-26 23:33:00,70.2,68.7,29.97,South,180,0.0,0.0,95,0.00,CLR,,0.00,0.0,WeatherDisplay:10.37,2013-03-26 13:33:00,
2013-03-26 23:38:00,70.2,68.7,29.97,NW,315,0.0,0.0,95,0.00,CLR,,0.00,0.0,WeatherDisplay:10.37,2013-03-26 13:38:00,
2013-03-26 23:44:00,70.0,68.5,29.97,West,270,1.1,1.1,95,0.00,CLR,,0.00,0.0,WeatherDisplay:10.37,2013-03-26 13:44:00,
2013-03-26 23:49:00,70.0,68.8,29.97,West,270,0.0,0.0,96,0.00,CLR,,0.00,0.0,WeatherDisplay:10.37,2013-03-26 13:49:00,
2013-03-26 23:54:00,70.2,69.0,29.96,West,270,0.0,0.0,96,0.00,CLR,,0.00,0.0,WeatherDisplay:10.37,2013-03-26 13:54:00,
2013-03-26 23:59:00,70.0,68.8,29.96,West,270,0.0,0.0,96,0.00,CLR,,0.00,0.0,WeatherDisplay:10.37,2013-03-26 13:59:00,